Location: Praha
(50.0875°N, 14.4213°E)
Time: 07:37:05
(UTC+02:00)

ISS - Pass Details

Date: 21 May 2026
Orbit: 413 x 423 km, 51.6° (Epoch: 5 June)

Event Time Altitude Azimuth Distance (km) Brightness Sun altitude
Rises 23:26:48 0° 280° (W) 2,352 0.5 -16.7°
Reaches altitude 10° 23:29:55 10° 248° (WSW) 1,486 -1.0 -16.9°
Enters shadow 23:30:50 12° 232° (SW) 1,377 -1.3 -16.9°
